View from above orbital plane
|
View from above satellite
|
Ground track
|
The orbit data is extracted from the following two-line orbital elements,
1 19045U 88032A 13140.73334059 .00019139 00000-0 42979-3 0 4962
2 19045 097.2802 199.0236 0007602 098.0481 049.3397 15.43379454379632
| Epoch (UTC): | 20 May 2013 17:36:00 |
| Eccentricity: | 0.0007602 |
| inclination: | 97.2802° |
| perigee height: | 431 km |
| apogee height: | 441 km |
| right ascension of ascending node: | 199.0236° |
| argument of perigee: | 98.0481° |
| revolutions per day: | 15.43379454 |
| mean anomaly at epoch: | 49.3397° |
| orbit number at epoch: | 37963 |
The dashed part of the orbit path shows where the satellite is in the earth's shadow,
|
|